Regional Weather Roundup
Issued by NWS Charleston, WV

Home | Current Version | Previous Version | Text Only | Print | Product List | Glossary Off
Versions: 1 2 3 4 5 6 7 8 9 10 11 12 13 14 15 16 17 18 19 20 21 22 23 24 25 26 27 28 29 30 31 32 33 34 35 36 37 38 39 40 41 42 43 44 45 46 47 48 49 50

000
ASUS41 KRLX 230010
RWRRLX
West Virginia Regional Weather Roundup
National Weather Service Charleston WV
800 PM EDT SUN APR 22 2018

Note: "fair" indicates few or no clouds below 12,000 feet with no
significant weather and/or obstructions to visibility.

WVZ003-230100-
Northern Panhandle of West Virginia

CITY           SKY/WX    TMP DP  RH WIND       PRES   REMARKS
WHEELING       FAIR      63  28  26 NE7       30.23S
$$

WVZ009-230100-
Northwest West Virginia

CITY           SKY/WX    TMP DP  RH WIND       PRES   REMARKS
PARKERSBURG    FAIR      67  17  14 CALM      30.22S
$$

WVZ006-230100-
Western West Virginia

CITY           SKY/WX    TMP DP  RH WIND       PRES   REMARKS
HUNTINGTON     FAIR      64  25  22 NE7       30.16S
$$

WVZ015-230100-
West Central West Virginia

CITY           SKY/WX    TMP DP  RH WIND       PRES   REMARKS
CHARLESTON     MOCLDY    66  27  23 NE6       30.16S
$$

WVZ022-031-230100-
North Central West Virginia

CITY           SKY/WX    TMP DP  RH WIND       PRES   REMARKS
CLARKSBURG     FAIR      62  31  31 NE8       30.21R
MORGANTOWN     FAIR      65  33  30 E12       30.23S
$$

WVZ025-035-042-045-230100-
Southern West Virginia

CITY           SKY/WX    TMP DP  RH WIND       PRES   REMARKS
BECKLEY        FAIR      61  39  44 SE9       30.21S
LOGAN          FAIR      68  34  28 NE7       30.15S
BLUEFIELD      FAIR      56  41  57 VRB7      30.24S
LEWISBURG      FAIR      61  40  46 SE5       30.25R
$$

WVZ047-230100-
Northern Mountains of West Virginia

CITY           SKY/WX    TMP DP  RH WIND       PRES   REMARKS
ELKINS         FAIR      62  33  33 E7        30.23R
$$

WVZ052-230100-
Eastern Panhandle of West Virginia

CITY           SKY/WX    TMP DP  RH WIND       PRES   REMARKS
MARTINSBURG    FAIR      60  38  43 E6        30.30R
PETERSBURG     FAIR      61  40  45 SE7       30.25R
$$



USA.gov is the U.S. government's official web portal to all federal, state and local government web resources and services.